Torna al catalogo

CANX-2

AttivoScienzaSSO
NORAD 32790·PAYLOAD·🇨🇦 Canada

Lanciato Apr 28, 2008 da Satish Dhawan Space Centre

Loading…

Prossimi Passaggi (prossime 24 ore)

TLE

AggiornatoSource: Space-Track

Epoca: Sep 14, 2026, 09:27 UTC

1 32790U 08021H   26257.39384319  .00002223  00000-0  15627-3 0  9997
2 32790  97.8739 238.9883 0011918 100.7148 259.5421 15.06142392998230

Traccia CANX-2 in tempo reale con AllMySat

Download on the App Store